Dewpoint
68 69 67 71 73 71 71 70 70 70 71 72 72 73 73 74 73 73 72 72 72 70 69 69 68 67 67 67 66 63 59 54 52 54 54 56 56 56 54 58 55 55 56
68 68 68 69 72 72 71 73 72 70 70 73 72 73 73 73 74 73 72 73 72 71 71 70 70 71 69 68 68 67 66 63 58 59 60 59 58 56 55 53 53 53 54
69 68 68 69 70 71 71 71 72 73 71 73 73 73 73 73 73 73 73 73 72 72 72 71 71 71 70 70 70 69 69 68 65 62 65 62 61 58 56 55 56 57 56
69 68 68 68 68 69 70 71 70 72 73 72 73 72 72 73 73 73 73 73 73 73 73 72 72 72 71 71 70 70 70 69 67 66 67 65 64 62 57 56 59 57 58
68 68 68 69 68 68 68 69 70 70 71 72 72 73 72 72 72 73 73 73 73 73 73 73 73 73 71 71 72 71 70 70 69 69 68 68 66 63 59 58 57 55 57
69 69 68 69 69 69 69 68 69 68 68 70 72 72 73 72 67 66 70 72 73 73 73 73 72 71 71 68 68 68 70 71 70 70 70 69 69 67 63 58 57 55 55
69 69 69 69 70 70 70 70 70 69 68 68 69 71 71 72 66 65 66 71 72 72 72 72 72 72 70 72 69 66 66 66 67 71 70 69 69 69 63 59 54 56 57
68 68 69 70 70 70 71 71 71 70 70 69 69 69 70 70 65 64 65 70 71 71 71 71 71 71 70 70 70 70 69 68 67 67 68 68 68 69 65 62 59 57 58
64 65 68 70 70 70 71 71 71 71 70 70 70 69 70 69 63 62 63 69 70 70 71 70 70 70 67 63 68 68 68 68 66 63 64 64 63 62 62 58 57 56 55
61 62 65 66 69 70 70 70 71 71 70 70 70 70 68 70 63 61 62 70 70 70 70 70 65 67 63 60 66 67 67 68 68 66 65 63 62 61 59 62 57 56 55
60 61 63 65 66 70 71 71 70 70 70 70 70 70 71 69 69 59 59 69 69 69 69 69 70 62 59 57 58 67 67 67 66 66 66 63 59 59 59 60 58 58 55
61 61 63 65 67 71 72 71 71 71 70 70 70 69 70 70 64 62 59 59 66 69 69 70 70 61 58 57 56 58 57 59 63 63 64 62 59 58 58 58 59 56 55
61 62 63 66 67 69 71 71 71 71 71 71 71 70 70 71 71 61 60 59 59 66 71 69 64 59 55 57 56 57 56 61 64 65 66 64 58 59 58 57 57 53 52
60 60 62 62 64 69 71 71 71 71 71 70 70 70 70 70 71 71 68 66 61 63 65 68 66 63 61 64 63 60 62 65 66 66 64 62 58 56 56 57 55 53 52
59 60 61 62 64 66 67 68 71 73 71 72 72 72 72 72 71 67 68 73 71 67 65 69 70 67 68 68 67 66 64 64 64 64 61 59 56 56 56 55 54 53 51
57 59 60 62 63 64 64 65 62 60 57 51 52 62 73 60 53 54 51 52 52 54 65 68 68 69 69 69 69 69 67 65 65 63 61 60 58 56 55 53 52 51 51
59 58 60 59 61 60 61 62 62 62 50 49 48 47 47 49 51 51 50 50 49 52 66 68 68 69 68 66 66 68 69 65 64 62 61 59 58 56 55 53 51 50 49
54 53 57 58 59 59 60 60 61 62 64 64 55 52 46 45 44 44 45 50 60 57 65 66 67 68 67 68 69 69 68 64 63 61 60 59 58 56 54 53 52 52 50
50 52 53 58 57 57 59 59 59 59 60 61 60 55 54 50 47 46 45 61 67 66 66 67 67 68 68 69 69 68 66 64 62 60 60 58 58 57 54 54 53 49 49
48 50 52 52 55 54 56 57 56 56 57 57 56 54 55 58 63 63 62 62 64 65 66 67 67 67 68 68 68 66 63 62 62 61 59 59 59 57 54 53 52 51 50
45 46 51 50 50 53 52 53 54 55 54 54 55 54 45 56 57 57 57 59 59 59 60 62 62 63 65 64 64 63 62 61 59 60 58 58 58 55 55 53 53 51 50
41 45 45 46 49 49 50 50 52 53 53 52 52 53 46 53 53 54 54 54 55 55 55 56 56 56 55 59 62 62 60 59 59 59 59 59 57 56 54 52 52 51 50
37 46 44 43 45 47 47 48 48 51 51 51 50 50 50 50 51 52 52 53 53 52 52 52 50 50 50 50 51 52 57 60 60 59 58 58 57 56 54 53 51 50 50
37 44 46 44 44 43 44 45 45 45 48 47 49 48 47 47 46 46 48 50 50 49 49 46 45 46 47 46 46 45 43 40 48 58 57 57 56 54 55 54 52 51 50
37 35 35 41 42 43 43 41 41 46 47 47 46 45 43 45 45 45 46 46 45 45 45 44 40 40 42 42 42 41 36 33 40 41 58 57 57 57 55 55 55 51 47
34 34 32 34 33 37 44 43 42 41 44 46 45 45 44 41 41 41 41 41 41 39 39 43 39 37 36 37 37 35 33 33 37 34 44 57 57 55 54 55 55 49 45
Lifted_Index
-2 -2 -2 -2 -3 -3 -3 -3 -3 -3 -3 -4 -4 -5 -5 -6 -7 -7 -7 -7 -7 -7 -7 -7 -6 -6 -6 -5 -6 -6 -6 -6 -6 -6 -6 -6 -6 -6 -5 -4 -4 -3 -3
-2 -2 -2 -2 -3 -3 -3 -3 -3 -3 -3 -4 -4 -5 -5 -6 -6 -7 -7 -7 -7 -7 -7 -7 -7 -7 -6 -6 -6 -6 -6 -6 -6 -7 -7 -7 -7 -6 -6 -5 -4 -4 -3
-3 -2 -2 -2 -2 -3 -3 -3 -3 -3 -4 -4 -4 -5 -5 -6 -6 -7 -7 -7 -7 -7 -7 -7 -7 -7 -7 -7 -7 -7 -7 -7 -7 -7 -7 -7 -7 -7 -6 -6 -5 -5 -4
-3 -3 -2 -2 -2 -2 -3 -3 -3 -3 -4 -4 -4 -5 -5 -5 -6 -6 -7 -7 -7 -7 -7 -7 -7 -7 -7 -7 -7 -7 -7 -7 -7 -7 -7 -7 -6 -6 -6 -5 -5 -5 -4
-4 -4 -3 -3 -2 -2 -2 -2 -3 -3 -3 -3 -4 -4 -4 -5 -5 -6 -6 -6 -7 -7 -7 -7 -7 -7 -7 -7 -7 -7 -7 -6 -6 -6 -6 -6 -5 -5 -5 -5 -5 -5 -5
-4 -4 -4 -3 -3 -3 -3 -2 -2 -2 -2 -2 -3 -4 -4 -5 -5 -5 -6 -6 -6 -6 -6 -6 -6 -6 -6 -6 -6 -6 -6 -6 -5 -5 -5 -5 -5 -4 -5 -5 -5 -5 -5
-4 -4 -4 -4 -4 -4 -4 -3 -3 -2 -2 -2 -2 -3 -3 -4 -5 -5 -5 -6 -6 -6 -6 -5 -5 -5 -5 -5 -5 -5 -5 -5 -5 -5 -4 -4 -4 -4 -5 -5 -5 -5 -5
-5 -5 -5 -5 -5 -5 -5 -4 -4 -4 -3 -3 -3 -3 -3 -3 -4 -4 -5 -5 -5 -5 -5 -5 -5 -5 -5 -5 -4 -4 -4 -4 -4 -4 -3 -3 -4 -4 -5 -5 -5 -5 -4
-7 -6 -6 -6 -6 -5 -5 -5 -5 -5 -4 -4 -4 -3 -3 -3 -3 -3 -4 -4 -4 -4 -4 -4 -4 -4 -4 -4 -4 -3 -3 -3 -3 -3 -3 -3 -4 -4 -4 -5 -5 -4 -4
-7 -7 -7 -7 -7 -6 -6 -6 -6 -5 -5 -5 -4 -4 -4 -4 -4 -4 -4 -3 -3 -3 -3 -3 -3 -4 -4 -4 -4 -3 -3 -3 -3 -4 -4 -3 -4 -4 -4 -4 -4 -4 -4
-6 -6 -7 -7 -7 -7 -7 -7 -6 -6 -5 -5 -5 -4 -4 -4 -4 -4 -4 -4 -3 -3 -3 -3 -4 -4 -4 -4 -4 -4 -4 -4 -4 -4 -4 -4 -4 -3 -3 -3 -3 -3 -3
-5 -5 -6 -7 -8 -8 -8 -8 -7 -7 -6 -6 -5 -5 -5 -5 -5 -5 -5 -5 -4 -4 -4 -4 -4 -5 -5 -5 -5 -5 -5 -5 -5 -4 -4 -4 -4 -3 -3 -2 -2 -2 -2
-3 -4 -5 -7 -8 -8 -9 -9 -8 -8 -8 -7 -7 -6 -6 -6 -6 -6 -6 -6 -6 -6 -5 -5 -5 -5 -6 -6 -6 -6 -6 -6 -5 -5 -4 -4 -4 -3 -2 -2 -2 -1 -1
-1 -2 -4 -5 -7 -8 -8 -9 -9 -9 -9 -8 -8 -8 -7 -7 -7 -7 -7 -7 -7 -7 -6 -6 -6 -6 -6 -6 -6 -6 -6 -6 -5 -4 -4 -4 -4 -3 -3 -2 -2 -1 -1
1 0 -1 -3 -4 -5 -6 -7 -8 -9 -9 -9 -9 -9 -8 -8 -8 -8 -8 -8 -8 -7 -7 -7 -6 -6 -6 -5 -5 -5 -5 -5 -5 -4 -4 -4 -4 -3 -3 -2 -2 -1 -1
2 1 0 -1 -2 -3 -4 -6 -7 -8 -8 -8 -9 -9 -9 -9 -9 -9 -9 -8 -8 -8 -7 -7 -7 -6 -5 -4 -3 -3 -4 -4 -4 -4 -4 -4 -4 -4 -3 -2 -2 -1 -1
2 2 2 1 -0 -1 -2 -4 -5 -6 -6 -7 -7 -8 -8 -9 -9 -9 -9 -9 -9 -8 -8 -7 -6 -5 -4 -3 -2 -3 -4 -4 -4 -4 -4 -4 -4 -4 -4 -3 -2 -1 -1
2 2 3 2 2 1 -0 -1 -3 -4 -4 -5 -6 -7 -7 -8 -8 -8 -8 -8 -8 -8 -8 -7 -6 -4 -3 -3 -3 -4 -4 -4 -4 -4 -4 -4 -5 -5 -5 -3 -2 -1 -1
3 3 3 3 3 3 2 1 -0 -2 -3 -4 -4 -5 -6 -6 -7 -7 -7 -7 -7 -7 -7 -7 -6 -5 -4 -4 -5 -4 -4 -4 -4 -4 -4 -4 -5 -5 -5 -4 -2 -2 -2
5 5 4 4 4 4 3 3 1 0 -1 -2 -3 -4 -4 -5 -5 -5 -5 -5 -5 -5 -6 -5 -5 -5 -5 -5 -5 -4 -4 -4 -4 -4 -3 -4 -4 -5 -5 -4 -3 -2 -2
6 6 6 5 5 5 4 4 3 2 1 -1 -1 -2 -3 -3 -4 -4 -4 -3 -3 -4 -4 -4 -4 -4 -4 -4 -4 -4 -4 -4 -3 -3 -3 -3 -3 -4 -4 -3 -2 -2 -1
7 7 7 7 6 6 5 5 4 3 2 1 -0 -1 -1 -2 -2 -2 -2 -2 -3 -3 -3 -4 -4 -4 -4 -4 -4 -4 -3 -3 -2 -2 -2 -2 -2 -2 -2 -2 -2 -2 -1
8 8 8 8 8 8 7 6 5 4 4 3 2 1 0 -0 -1 -1 -1 -2 -2 -2 -3 -3 -3 -3 -3 -3 -2 -2 -2 -1 -1 -1 -1 -1 -1 -1 -1 -2 -2 -1 -1
9 9 10 10 10 10 9 8 7 6 5 4 3 3 2 1 1 1 0 0 -0 -0 -1 -1 -1 -1 -1 -1 -0 -0 -0 -0 -0 0 0 -0 -1 -1 -1 -1 -1 -1 -1
10 10 11 11 11 11 11 10 9 8 7 6 5 5 4 4 3 3 3 3 3 2 2 1 1 1 1 1 1 1 1 1 1 1 1 0 -0 -0 -1 -1 -1 -1 -1
11 11 11 11 12 11 11 11 10 10 9 8 7 6 5 5 5 5 6 6 5 4 3 3 3 3 2 2 2 2 2 1 1 1 1 0 0 -0 -0 -0 -1 -1 -1